date(mm/dd/yyyy),time(HH:MM:SS.SSS),time (unix sec),lat (dec. deg.), lon (dec. deg.), depth (m), alt (m)  
03/07/2017,18:34:44.085,1488911684.085,-11.045388833333,-171.110122166667,  48.6,  nan 
03/07/2017,18:34:49.330,1488911689.330,-11.045393500000,-171.110126000000,  48.5,  nan 
03/07/2017,18:34:54.460,1488911694.460,-11.045394166667,-171.110118500000,  48.5,  nan 
03/07/2017,18:34:59.702,1488911699.702,-11.045423333333,-171.110103666667,  48.5,  nan 
03/07/2017,18:35:04.943,1488911704.943,-11.045424500000,-171.110103000000,  48.5,  nan 
03/07/2017,18:35:10.295,1488911710.295,-11.045431666667,-171.110103833333,  48.6,  nan 
03/07/2017,18:35:15.318,1488911715.318,-11.045435666667,-171.110101166667,  48.6,  nan 
03/07/2017,18:35:20.567,1488911720.567,-11.045446833333,-171.110098666667,  48.6,  nan 
03/07/2017,18:35:25.913,1488911725.913,-11.045449833333,-171.110099666667,  48.6,  nan 
03/07/2017,18:35:30.938,1488911730.938,-11.045466166667,-171.110102666667,  48.7,  nan 
03/07/2017,18:35:36.394,1488911736.394,-11.045467000000,-171.110103000000,  49.5,  nan 
03/07/2017,18:35:41.525,1488911741.525,-11.045482833333,-171.110105666667,  50.4,  nan 
03/07/2017,18:35:46.767,1488911746.767,-11.045472666667,-171.110108000000,  51.2,  nan 
03/07/2017,18:35:51.791,1488911751.791,-11.045500166667,-171.110115333333,  52.1,  nan 
03/07/2017,18:35:57.147,1488911757.147,-11.045497000000,-171.110118166667,  53.5,  nan 
03/07/2017,18:36:02.384,1488911762.384,-11.045509500000,-171.110110666667,  55.5,  nan 
03/07/2017,18:36:07.627,1488911767.627,-11.045524000000,-171.110104666667,  57.9,  nan 
03/07/2017,18:36:12.758,1488911772.758,-11.045530833333,-171.110096666667,  60.1,  nan 
03/07/2017,18:36:18.003,1488911778.003,-11.045531000000,-171.110085833333,  62.0,  nan 
03/07/2017,18:36:23.242,1488911783.242,-11.045527833333,-171.110083166667,  64.0,  nan 
03/07/2017,18:36:28.486,1488911788.486,-11.045545166667,-171.110087000000,  66.0,  nan 
03/07/2017,18:36:33.839,1488911793.839,-11.045536333333,-171.110082833333,  68.1,  nan 
03/07/2017,18:36:38.862,1488911798.862,-11.045553666667,-171.110072666667,  70.1,  nan 
03/07/2017,18:36:44.099,1488911804.099,-11.045561000000,-171.110068000000,  72.2,  nan 
03/07/2017,18:36:49.234,1488911809.234,-11.045558166667,-171.110065333333,  74.0,  nan 
03/07/2017,18:36:54.476,1488911814.476,-11.045557666667,-171.110060166667,  75.0,  nan 
03/07/2017,18:36:59.717,1488911819.717,-11.045556000000,-171.110065833333,  75.8,  nan 
03/07/2017,18:37:05.067,1488911825.067,-11.045554833333,-171.110055000000,  76.5,  nan 
03/07/2017,18:37:10.308,1488911830.308,-11.045549833333,-171.110056500000,  77.5,  nan 
03/07/2017,18:37:15.334,1488911835.334,-11.045549166667,-171.110057500000,  78.9,  nan 
03/07/2017,18:37:20.682,1488911840.682,-11.045553166667,-171.110058500000,  80.7,  nan 
03/07/2017,18:37:25.924,1488911845.924,-11.045557833333,-171.110052000000,  82.4,  nan 
03/07/2017,18:37:31.166,1488911851.166,-11.045561000000,-171.110047000000,  84.1,  nan 
03/07/2017,18:37:36.303,1488911856.303,-11.045571666667,-171.110043000000,  85.3,  nan 
03/07/2017,18:37:41.545,1488911861.545,-11.045574500000,-171.110044666667,  86.5,  nan 
03/07/2017,18:37:46.784,1488911866.784,-11.045578166667,-171.110046000000,  88.0,  nan 
03/07/2017,18:37:51.920,1488911871.920,-11.045582500000,-171.110053333333,  90.1,  nan 
03/07/2017,18:37:57.158,1488911877.158,-11.045592166667,-171.110048833333,  92.9,  nan 
03/07/2017,18:38:02.401,1488911882.401,-11.045601000000,-171.110049666667,  96.6,  nan 
03/07/2017,18:38:07.749,1488911887.749,-11.045598500000,-171.110054166667, 100.9,  nan 
03/07/2017,18:38:12.775,1488911892.775,-11.045601833333,-171.110051666667, 105.1,  nan 
03/07/2017,18:38:18.015,1488911898.015,-11.045597666667,-171.110058000000, 109.2,  nan 
03/07/2017,18:38:23.368,1488911903.368,-11.045592166667,-171.110060500000, 113.2,  nan 
03/07/2017,18:38:28.612,1488911908.612,-11.045590000000,-171.110051500000, 116.8,  nan 
03/07/2017,18:38:33.633,1488911913.633,-11.045581666667,-171.110050666667, 119.9,  nan 
03/07/2017,18:38:38.982,1488911918.982,-11.045576500000,-171.110049333333, 123.1,  nan 
03/07/2017,18:38:44.223,1488911924.223,-11.045580833333,-171.110033833333, 126.3,  nan 
03/07/2017,18:38:49.467,1488911929.467,-11.045568166667,-171.110033500000, 129.2,  nan 
03/07/2017,18:38:54.709,1488911934.709,-11.045565166667,-171.110030833333, 131.8,  nan 
03/07/2017,18:38:59.839,1488911939.839,-11.045556333333,-171.110019500000, 134.1,  nan 
03/07/2017,18:39:05.081,1488911945.081,-11.045554500000,-171.110014500000, 136.0,  nan 
03/07/2017,18:39:10.213,1488911950.213,-11.045549000000,-171.110009666667, 137.8,  nan 
03/07/2017,18:39:15.674,1488911955.674,-11.045542666667,-171.110007500000, 139.5,  nan 
03/07/2017,18:39:20.696,1488911960.696,-11.045534166667,-171.110004000000, 140.9,  nan 
03/07/2017,18:39:25.940,1488911965.940,-11.045531666667,-171.109993666667, 142.1,  nan 
03/07/2017,18:39:31.071,1488911971.071,-11.045526166667,-171.109993333333, 143.1,  nan 
03/07/2017,18:39:36.315,1488911976.315,-11.045528666667,-171.109993000000, 143.9,  nan 
03/07/2017,18:39:41.555,1488911981.555,-11.045519833333,-171.109986833333, 144.8,  nan 
03/07/2017,18:39:46.906,1488911986.906,-11.045521166667,-171.109977166667, 145.9,  nan 
03/07/2017,18:39:52.146,1488911992.146,-11.045521500000,-171.109972666667, 147.1,  nan 
03/07/2017,18:39:57.175,1488911997.175,-11.045521333333,-171.109967500000, 148.4,  nan 
03/07/2017,18:40:02.521,1488912002.521,-11.045522833333,-171.109962666667, 149.9,  nan 
03/07/2017,18:40:07.547,1488912007.547,-11.045527666667,-171.109958500000, 151.4,  nan 
03/07/2017,18:40:13.009,1488912013.009,-11.045528166667,-171.109952166667, 153.0,  nan 
03/07/2017,18:40:18.139,1488912018.139,-11.045531666667,-171.109948500000, 154.8,  nan 
03/07/2017,18:40:23.382,1488912023.382,-11.045536000000,-171.109947500000, 156.9,  nan 
03/07/2017,18:40:28.622,1488912028.622,-11.045549833333,-171.109953833333, 159.2,  nan 
03/07/2017,18:40:33.755,1488912033.755,-11.045546666667,-171.109939333333, 161.7,  nan 
03/07/2017,18:40:38.998,1488912038.998,-11.045551666667,-171.109942000000, 164.5,  nan 
03/07/2017,18:40:44.239,1488912044.239,-11.045550166667,-171.109944500000, 167.5,  nan 
03/07/2017,18:40:49.589,1488912049.589,-11.045543166667,-171.109946166667, 171.0,  nan 
03/07/2017,18:40:54.616,1488912054.616,-11.045548500000,-171.109946833333, 174.3,  nan 
03/07/2017,18:40:59.858,1488912059.858,-11.045548833333,-171.109951833333, 177.8,  nan 
03/07/2017,18:41:05.206,1488912065.206,-11.045547333333,-171.109952500000, 181.4,  nan 
03/07/2017,18:41:10.449,1488912070.449,-11.045542333333,-171.109944333333, 185.1,  nan 
03/07/2017,18:41:15.474,1488912075.474,-11.045543166667,-171.109954000000, 188.4,  nan 
03/07/2017,18:41:20.827,1488912080.827,-11.045535833333,-171.109947000000, 192.2,  nan 
03/07/2017,18:41:26.065,1488912086.065,-11.045537666667,-171.109945000000, 195.7,  nan 
03/07/2017,18:41:31.088,1488912091.088,-11.045531500000,-171.109941000000, 199.5,  nan 
03/07/2017,18:41:36.548,1488912096.548,-11.045526833333,-171.109934666667, 203.2,  nan 
03/07/2017,18:41:41.684,1488912101.684,-11.045532666667,-171.109930000000, 206.6,  nan 
03/07/2017,18:41:46.920,1488912106.920,-11.045525166667,-171.109931833333, 210.2,  nan 
03/07/2017,18:41:52.054,1488912112.054,-11.045527666667,-171.109928833333, 213.7,  nan 
03/07/2017,18:41:57.299,1488912117.299,-11.045540166667,-171.109927666667, 217.2,  nan 
03/07/2017,18:42:02.536,1488912122.536,-11.045538833333,-171.109931833333, 220.6,  nan 
03/07/2017,18:42:07.783,1488912127.783,-11.045535333333,-171.109928666667, 223.8,  nan 
03/07/2017,18:42:13.129,1488912133.129,-11.045547666667,-171.109927166667, 227.3,  nan 
03/07/2017,18:42:18.153,1488912138.153,-11.045539000000,-171.109923500000, 230.1,  nan 
03/07/2017,18:42:23.395,1488912143.395,-11.045534333333,-171.109927166667, 233.1,  nan 
03/07/2017,18:42:28.745,1488912148.745,-11.045536333333,-171.109922000000, 236.0,  nan 
03/07/2017,18:42:33.989,1488912153.989,-11.045536166667,-171.109926833333, 239.0,  nan 
03/07/2017,18:42:39.013,1488912159.013,-11.045530666667,-171.109929666667, 241.7,  nan 
03/07/2017,18:42:44.364,1488912164.364,-11.045524500000,-171.109928166667, 244.5,  nan 
03/07/2017,18:42:49.603,1488912169.603,-11.045521500000,-171.109928333333, 247.0,  nan 
03/07/2017,18:42:54.632,1488912174.632,-11.045531500000,-171.109933500000, 249.5,  nan 
03/07/2017,18:42:59.977,1488912179.977,-11.045531666667,-171.109942500000, 251.9,  nan 
03/07/2017,18:43:05.222,1488912185.222,-11.045527000000,-171.109937833333, 254.2,  nan 
03/07/2017,18:43:10.463,1488912190.463,-11.045538166667,-171.109946000000, 256.5,  nan 
03/07/2017,18:43:15.595,1488912195.595,-11.045540500000,-171.109946166667, 258.9,  nan 
03/07/2017,18:43:20.847,1488912200.847,-11.045549000000,-171.109966500000, 261.3,  nan 
03/07/2017,18:43:26.153,1488912206.153,-11.045552666667,-171.109954000000, 263.5,  nan 
03/07/2017,18:43:31.429,1488912211.429,-11.045555666667,-171.109959666667, 265.9,  nan 
03/07/2017,18:43:36.456,1488912216.456,-11.045558333333,-171.109962166667, 268.0,  nan 
03/07/2017,18:43:41.697,1488912221.697,-11.045569333333,-171.109963500000, 270.3,  nan 
03/07/2017,18:43:47.047,1488912227.047,-11.045565000000,-171.109973500000, 272.6,  nan 
03/07/2017,18:43:52.069,1488912232.069,-11.045576333333,-171.109971333333, 274.7,  nan 
03/07/2017,18:43:57.531,1488912237.531,-11.045570666667,-171.109967833333, 277.2,  nan 
03/07/2017,18:44:02.660,1488912242.660,-11.045580000000,-171.109982166667, 279.6,  nan 
03/07/2017,18:44:07.907,1488912247.907,-11.045586333333,-171.109979333333, 282.0,  nan 
03/07/2017,18:44:12.930,1488912252.930,-11.045581166667,-171.109982500000, 284.2,  nan 
03/07/2017,18:44:18.276,1488912258.276,-11.045578500000,-171.109981166667, 286.6,  nan 
03/07/2017,18:44:23.520,1488912263.520,-11.045579666667,-171.109978666667, 289.0,  nan 
03/07/2017,18:44:28.759,1488912268.759,-11.045579833333,-171.109987666667, 291.3,  nan 
03/07/2017,18:44:34.002,1488912274.002,-11.045576500000,-171.109966166667, 293.4,  nan 
03/07/2017,18:44:44.381,1488912284.381,-11.045570833333,-171.109962833333, 298.1,  nan 
03/07/2017,18:44:49.620,1488912289.620,-11.045567666667,-171.109971000000, 300.4,  nan 
03/07/2017,18:44:54.968,1488912294.968,-11.045564000000,-171.109962333333, 302.8,  nan 
03/07/2017,18:44:59.991,1488912299.991,-11.045566333333,-171.109949666667, 305.2,  nan 
03/07/2017,18:45:05.267,1488912305.267,-11.045576166667,-171.109952500000, 307.7,  nan 
03/07/2017,18:45:10.583,1488912310.583,-11.045582333333,-171.109945333333, 310.2,  nan 
03/07/2017,18:45:15.609,1488912315.609,-11.045574166667,-171.109930500000, 312.5,  nan 
03/07/2017,18:45:20.852,1488912320.852,-11.045583666667,-171.109944500000, 314.9,  nan 
03/07/2017,18:45:26.200,1488912326.200,-11.045584000000,-171.109929833333, 317.3,  nan 
03/07/2017,18:45:31.445,1488912331.445,-11.045591000000,-171.109926666667, 319.7,  nan 
03/07/2017,18:45:36.464,1488912336.464,-11.045585833333,-171.109919333333, 322.1,  nan 
03/07/2017,18:45:41.823,1488912341.823,-11.045593833333,-171.109917500000, 324.6,  nan 
03/07/2017,18:45:47.061,1488912347.061,-11.045595166667,-171.109920000000, 327.1,  nan 
03/07/2017,18:45:57.432,1488912357.432,-11.045613333333,-171.109910833333, 331.9,  nan 
03/07/2017,18:46:02.673,1488912362.673,-11.045608000000,-171.109899833333, 334.1,  nan 
03/07/2017,18:46:07.914,1488912367.914,-11.045620333333,-171.109921000000, 336.4,  nan 
03/07/2017,18:46:13.268,1488912373.268,-11.045624333333,-171.109896333333, 338.8,  nan 
03/07/2017,18:46:18.293,1488912378.293,-11.045625166667,-171.109916166667, 341.2,  nan 
03/07/2017,18:46:23.535,1488912383.535,-11.045631333333,-171.109911166667, 343.6,  nan 
03/07/2017,18:46:28.883,1488912388.883,-11.045638666667,-171.109908833333, 346.1,  nan 
03/07/2017,18:46:33.907,1488912393.907,-11.045646000000,-171.109914666667, 348.5,  nan 
03/07/2017,18:46:39.149,1488912399.149,-11.045654666667,-171.109924500000, 350.8,  nan 
03/07/2017,18:46:44.500,1488912404.500,-11.045661500000,-171.109907833333, 353.3,  nan 
03/07/2017,18:46:49.742,1488912409.742,-11.045667500000,-171.109920333333, 355.8,  nan 
03/07/2017,18:46:54.982,1488912414.982,-11.045676166667,-171.109921000000, 358.4,  nan 
03/07/2017,18:47:00.117,1488912420.117,-11.045676500000,-171.109933500000, 361.3,  nan 
03/07/2017,18:47:05.361,1488912425.361,-11.045684833333,-171.109936833333, 363.9,  nan 
03/07/2017,18:47:10.601,1488912430.601,-11.045691666667,-171.109935166667, 366.8,  nan 
03/07/2017,18:47:15.841,1488912435.841,-11.045692666667,-171.109951833333, 369.6,  nan 
03/07/2017,18:47:20.972,1488912440.972,-11.045693833333,-171.109953166667, 372.3,  nan 
03/07/2017,18:47:26.213,1488912446.213,-11.045690000000,-171.109961833333, 374.9,  nan 
03/07/2017,18:47:31.458,1488912451.458,-11.045685833333,-171.109966833333, 377.5,  nan 
03/07/2017,18:47:36.588,1488912456.588,-11.045688000000,-171.109960666667, 380.2,  nan 
03/07/2017,18:47:41.833,1488912461.833,-11.045687666667,-171.109968833333, 382.9,  nan 
03/07/2017,18:47:47.080,1488912467.080,-11.045693833333,-171.109978333333, 385.5,  nan 
03/07/2017,18:47:52.427,1488912472.427,-11.045683166667,-171.109967666667, 388.2,  nan 
03/07/2017,18:47:57.451,1488912477.451,-11.045696666667,-171.109988666667, 390.8,  nan 
03/07/2017,18:48:02.689,1488912482.689,-11.045686333333,-171.109981666667, 393.4,  nan 
03/07/2017,18:48:08.038,1488912488.038,-11.045681666667,-171.109988833333, 396.1,  nan 
03/07/2017,18:48:13.282,1488912493.282,-11.045686333333,-171.109996833333, 398.9,  nan 
03/07/2017,18:48:18.308,1488912498.308,-11.045692333333,-171.110001833333, 401.2,  nan 
03/07/2017,18:48:23.696,1488912503.696,-11.045697166667,-171.110005333333, 403.9,  nan 
03/07/2017,18:48:28.900,1488912508.900,-11.045702333333,-171.110020500000, 406.7,  nan 
03/07/2017,18:48:34.140,1488912514.140,-11.045700500000,-171.110005833333, 409.4,  nan 
03/07/2017,18:48:39.275,1488912519.275,-11.045702666667,-171.110015000000, 412.3,  nan 
03/07/2017,18:48:44.513,1488912524.513,-11.045707500000,-171.110022500000, 415.2,  nan 
03/07/2017,18:48:49.759,1488912529.759,-11.045726833333,-171.110029833333, 418.1,  nan 
03/07/2017,18:48:54.889,1488912534.889,-11.045719166667,-171.110027666667, 420.8,  nan 
03/07/2017,18:49:00.134,1488912540.134,-11.045737333333,-171.110034166667, 423.6,  nan 
03/07/2017,18:49:05.372,1488912545.372,-11.045743166667,-171.110042000000, 426.5,  nan 
03/07/2017,18:49:10.724,1488912550.724,-11.045751000000,-171.110039500000, 429.2,  nan 
03/07/2017,18:49:15.965,1488912555.965,-11.045769333333,-171.110048166667, 431.9,  nan 
03/07/2017,18:49:20.987,1488912560.987,-11.045769666667,-171.110043833333, 434.8,  nan 
03/07/2017,18:49:26.337,1488912566.337,-11.045787000000,-171.110047333333, 437.9,  nan 
03/07/2017,18:49:31.584,1488912571.584,-11.045784333333,-171.110058666667, 441.0,  nan 
03/07/2017,18:49:36.823,1488912576.823,-11.045799833333,-171.110064833333, 444.2,  nan 
03/07/2017,18:49:41.955,1488912581.955,-11.045804000000,-171.110062500000, 447.0,  nan 
03/07/2017,18:49:47.196,1488912587.196,-11.045792166667,-171.110057500000, 450.1,  nan 
03/07/2017,18:49:52.437,1488912592.437,-11.045822833333,-171.110069333333, 453.1,  nan 
03/07/2017,18:49:57.680,1488912597.680,-11.045804333333,-171.110053666667, 455.9,  nan 
03/07/2017,18:50:02.813,1488912602.813,-11.045821833333,-171.110076500000, 458.7,  nan 
03/07/2017,18:50:08.057,1488912608.057,-11.045825166667,-171.110069000000, 461.7,  nan 
03/07/2017,18:50:13.299,1488912613.299,-11.045819000000,-171.110074833333, 464.8,  nan 
03/07/2017,18:50:18.646,1488912618.646,-11.045839166667,-171.110091500000, 467.8,  nan 
03/07/2017,18:50:23.888,1488912623.888,-11.045829333333,-171.110075333333, 470.8,  nan 
03/07/2017,18:50:28.910,1488912628.910,-11.045850500000,-171.110078166667, 473.7,  nan 
03/07/2017,18:50:34.266,1488912634.266,-11.045846666667,-171.110093833333, 476.7,  nan 
03/07/2017,18:50:39.539,1488912639.539,-11.045861166667,-171.110088833333, 479.6,  nan 
03/07/2017,18:50:44.747,1488912644.747,-11.045850500000,-171.110084833333, 482.3,  nan 
03/07/2017,18:50:50.096,1488912650.096,-11.045859000000,-171.110091333333, 485.3,  nan 
03/07/2017,18:50:55.122,1488912655.122,-11.045860833333,-171.110089666667, 488.2,  nan 
03/07/2017,18:51:00.362,1488912660.362,-11.045860000000,-171.110082500000, 491.1,  nan 
03/07/2017,18:51:05.718,1488912665.718,-11.045870666667,-171.110100666667, 494.1,  nan 
03/07/2017,18:51:10.961,1488912670.961,-11.045871833333,-171.110098666667, 497.2,  nan 
03/07/2017,18:51:16.196,1488912676.196,-11.045887000000,-171.110099166667, 499.8,  nan 
03/07/2017,18:51:21.440,1488912681.440,-11.045883666667,-171.110101500000, 502.6,  nan 
03/07/2017,18:51:26.788,1488912686.788,-11.045903000000,-171.110097833333, 505.6,  nan 
03/07/2017,18:51:32.033,1488912692.033,-11.045892666667,-171.110096000000, 508.3,  nan 
03/07/2017,18:51:37.271,1488912697.271,-11.045910166667,-171.110101333333, 511.3,  nan 
03/07/2017,18:51:42.626,1488912702.626,-11.045903833333,-171.110098500000, 514.5,  nan 
03/07/2017,18:51:47.869,1488912707.869,-11.045918500000,-171.110099333333, 517.2,  nan 
03/07/2017,18:51:53.106,1488912713.106,-11.045929000000,-171.110102333333, 519.9,  nan 
03/07/2017,18:51:58.571,1488912718.571,-11.045918333333,-171.110090333333, 522.9,  nan 
03/07/2017,18:52:03.915,1488912723.915,-11.045938333333,-171.110094166667, 525.8,  nan 
03/07/2017,18:52:09.159,1488912729.159,-11.045940166667,-171.110096000000, 528.7,  nan 
03/07/2017,18:52:14.399,1488912734.399,-11.045933166667,-171.110089500000, 531.6,  nan 
03/07/2017,18:52:19.640,1488912739.640,-11.045970666667,-171.110102166667, 534.7,  nan 
03/07/2017,18:52:25.002,1488912745.002,-11.045943166667,-171.110086166667, 537.5,  nan 
03/07/2017,18:52:30.237,1488912750.237,-11.045960333333,-171.110107666667, 540.4,  nan 
03/07/2017,18:52:35.695,1488912755.695,-11.045970000000,-171.110093333333, 543.4,  nan 
03/07/2017,18:52:40.935,1488912760.935,-11.045969666667,-171.110077500000, 546.3,  nan 
03/07/2017,18:52:46.069,1488912766.069,-11.045993666667,-171.110091500000, 549.2,  nan 
03/07/2017,18:52:51.529,1488912771.529,-11.046001666667,-171.110088166667, 552.2,  nan 
03/07/2017,18:52:56.770,1488912776.770,-11.046007166667,-171.110094666667, 555.2,  nan 
03/07/2017,18:53:02.124,1488912782.124,-11.045997166667,-171.110095500000, 558.1,  nan 
03/07/2017,18:53:07.367,1488912787.367,-11.046026166667,-171.110110000000, 560.9,  nan 
03/07/2017,18:53:12.829,1488912792.829,-11.046035333333,-171.110106666667, 564.0,  nan 
03/07/2017,18:53:18.063,1488912798.063,-11.046038666667,-171.110115166667, 566.8,  nan 
03/07/2017,18:53:23.416,1488912803.416,-11.046041333333,-171.110106000000, 569.9,  nan 
03/07/2017,18:53:28.658,1488912808.658,-11.046051333333,-171.110115000000, 572.4,  nan 
03/07/2017,18:53:33.900,1488912813.900,-11.046043500000,-171.110122500000, 575.5,  nan 
03/07/2017,18:53:39.140,1488912819.140,-11.046053833333,-171.110127500000, 577.9,  nan 
03/07/2017,18:53:44.719,1488912824.719,-11.046062833333,-171.110127000000, 580.9,  nan 
03/07/2017,18:53:50.174,1488912830.174,-11.046058166667,-171.110125333333, 583.8,  nan 
03/07/2017,18:53:55.412,1488912835.412,-11.046075666667,-171.110136500000, 586.5,  nan 
03/07/2017,18:54:00.655,1488912840.655,-11.046078000000,-171.110126833333, 589.6,  nan 
03/07/2017,18:54:06.114,1488912846.114,-11.046104500000,-171.110166666667, 592.5,  nan 
03/07/2017,18:54:11.685,1488912851.685,-11.046081833333,-171.110146166667, 595.9,  nan 
03/07/2017,18:54:16.926,1488912856.926,-11.046086333333,-171.110145000000, 598.3,  nan 
03/07/2017,18:54:22.384,1488912862.384,-11.046079333333,-171.110158000000, 600.7,  nan 
03/07/2017,18:54:27.845,1488912867.845,-11.046109166667,-171.110159500000, 603.0,  nan 
03/07/2017,18:54:33.090,1488912873.090,-11.046096666667,-171.110157166667, 605.2,  nan 
03/07/2017,18:54:38.656,1488912878.656,-11.046117166667,-171.110161000000, 607.6,  nan 
03/07/2017,18:54:43.899,1488912883.899,-11.046115000000,-171.110171000000, 609.7,  nan 
03/07/2017,18:54:49.361,1488912889.361,-11.046141333333,-171.110180666667, 612.1,  nan 
03/07/2017,18:54:54.816,1488912894.816,-11.046113833333,-171.110162666667, 614.4,  nan 
03/07/2017,18:55:00.061,1488912900.061,-11.046144666667,-171.110184333333, 616.6,  nan 
03/07/2017,18:55:05.630,1488912905.630,-11.046145500000,-171.110179166667, 618.9,  nan 
03/07/2017,18:55:11.089,1488912911.089,-11.046141000000,-171.110169833333, 621.4,  nan 
03/07/2017,18:55:16.333,1488912916.333,-11.046153500000,-171.110213833333, 623.5,  nan 
03/07/2017,18:55:21.791,1488912921.791,-11.046144500000,-171.110190666667, 626.0,  nan 
03/07/2017,18:55:27.250,1488912927.250,-11.046169666667,-171.110202666667, 628.4,  nan 
03/07/2017,18:55:32.603,1488912932.603,-11.046169166667,-171.110218000000, 630.6,  nan 
03/07/2017,18:55:38.063,1488912938.063,-11.046161333333,-171.110203333333, 633.0,  nan 
03/07/2017,18:55:43.308,1488912943.308,-11.046182333333,-171.110225000000, 635.3,  nan 
03/07/2017,18:55:48.767,1488912948.767,-11.046182000000,-171.110242500000, 637.7,  nan 
03/07/2017,18:55:54.228,1488912954.228,-11.046185166667,-171.110214500000, 640.1,  nan 
03/07/2017,18:55:59.579,1488912959.579,-11.046172500000,-171.110221000000, 642.3,  nan 
03/07/2017,18:56:05.036,1488912965.036,-11.046195000000,-171.110242166667, 645.0,  nan 
03/07/2017,18:56:10.498,1488912970.498,-11.046174500000,-171.110229166667, 647.2,  nan 
03/07/2017,18:56:15.954,1488912975.954,-11.046194666667,-171.110238166667, 649.6,  nan 
03/07/2017,18:56:21.420,1488912981.420,-11.046206833333,-171.110250500000, 652.2,  nan 
03/07/2017,18:56:27.096,1488912987.096,-11.046205666667,-171.110243833333, 654.5,  nan 
03/07/2017,18:56:32.555,1488912992.555,-11.046206666667,-171.110243666667, 657.0,  nan 
03/07/2017,18:56:38.017,1488912998.017,-11.046225666667,-171.110243000000, 659.4,  nan 
03/07/2017,18:56:43.585,1488913003.585,-11.046233666667,-171.110245833333, 661.9,  nan 
03/07/2017,18:56:49.049,1488913009.049,-11.046252500000,-171.110242666667, 664.5,  nan 
03/07/2017,18:56:54.503,1488913014.503,-11.046244500000,-171.110255666667, 667.0,  nan 
03/07/2017,18:56:59.964,1488913019.964,-11.046240666667,-171.110240000000, 669.5,  nan 
03/07/2017,18:57:05.423,1488913025.423,-11.046275333333,-171.110263666667, 672.1,  nan 
03/07/2017,18:57:11.102,1488913031.102,-11.046261666667,-171.110249833333, 674.7,  nan 
03/07/2017,18:57:16.587,1488913036.587,-11.046264000000,-171.110241833333, 677.2,  nan 
03/07/2017,18:57:22.027,1488913042.027,-11.046285666667,-171.110251666667, 680.3,  nan 
03/07/2017,18:57:27.595,1488913047.595,-11.046281500000,-171.110248166667, 683.5,  nan 
03/07/2017,18:57:33.055,1488913053.055,-11.046288666667,-171.110269166667, 686.9,  nan 
03/07/2017,18:57:38.512,1488913058.512,-11.046276333333,-171.110248500000, 690.2,  nan 
03/07/2017,18:57:43.983,1488913063.983,-11.046300000000,-171.110245333333, 693.5,  nan 
03/07/2017,18:57:49.433,1488913069.433,-11.046298666667,-171.110258833333, 697.1,  nan 
03/07/2017,18:57:55.113,1488913075.113,-11.046303666667,-171.110239000000, 700.6,  nan 
03/07/2017,18:58:00.572,1488913080.572,-11.046344000000,-171.110271166667, 704.0,  nan 
03/07/2017,18:58:06.033,1488913086.033,-11.046339666667,-171.110264500000, 707.0,  nan 
03/07/2017,18:58:11.602,1488913091.602,-11.046332333333,-171.110248000000, 710.2,  nan 
03/07/2017,18:58:17.063,1488913097.063,-11.046352000000,-171.110279000000, 713.3,  nan 
03/07/2017,18:58:22.534,1488913102.534,-11.046363500000,-171.110275833333, 716.4,  nan 